Regional Weather Roundup
Issued by NWS

Home | Current Version | Previous Version | Text Only | Print | Product List | Glossary Off
Versions: 1 2 3 4 5 6 7 8 9 10 11 12 13 14 15 16 17 18 19 20 21 22 23 24 25 26 27 28 29 30 31 32 33 34 35 36 37 38 39 40 41 42 43 44 45 46 47 48 49 50

000
ASUS44 KMEG 281110
RWRTN
TENNESSEE HOURLY STATE WEATHER ROUNDUP
NATIONAL WEATHER SERVICE MEMPHIS TN
600 AM CDT TUE APR 28 2015

TNZ002-004-019-021-049-052-054-088>092-281200-
WEST TENNESSEE

CITY           SKY/WX    TMP DP  RH WIND       PRES   REMARKS
MEMPHIS INTL   CLOUDY    54  41  61 NE10      29.97F
NWS MEMPHIS      N/A     52 N/A N/A MISG        N/A
JACKSON        CLOUDY    48  41  76 NE5       29.99R
DYERSBURG      CLOUDY    50  30  46 NE8       30.02S
UNION CITY     CLEAR     43  32  65 N5        30.01S
PARIS          CLEAR     41  37  87 NE7       30.01S
LEXINGTON      CLEAR     46  39  76 N5        29.97R
SAVANNAH       CLEAR     45  32  61 CALM      29.96R
$$

TNZ008-025-027-028-033-062-065-066-281200-
NORTH MIDDLE TENNESSEE

CITY           SKY/WX    TMP DP  RH WIND       PRES   REMARKS
NASHVILLE      PTCLDY    46  40  79 N9        30.00R
CLARKSVILLE    FAIR      45  39  79 NE6       30.01S
SMYRNA         PTCLDY    46  40  79 NE6       30.00R
COOKEVILLE     CLEAR     37  37 100 N5        29.96R WCI  34
CROSSVILLE     CLEAR     41  35  79 VRB3      29.98R
$$

TNZ061-075-076-078-094-096-097-281200-
SOUTH MIDDLE TENNESSEE

CITY           SKY/WX    TMP DP  RH WIND       PRES   REMARKS
FAYETTEVILLE   CLEAR     43  37  81 NE9       29.93F
TULLAHOMA      CLEAR     43  37  81 CALM      29.96R
WINCHESTER     CLEAR     43  37  81 CALM      29.95S
MCMINNVILLE    CLEAR     39  39 100 NE5       29.97R
COLUMBIA       CLEAR     41  32  70 CALM      29.95S
SHELBYVILLE    CLEAR     39  37  93 CALM      29.97R
$$

TNZ017-018-042-046-047-281200-
NORTHEAST TENNESSEE

CITY           SKY/WX    TMP DP  RH WIND       PRES   REMARKS
TRI CITIES     CLEAR     35  34  96 CALM      30.00S
ELIZABETHTON   SUNNY     30  30 100 CALM      29.99F
$$

TNZ012-013-036-069-073-074-281200-
CENTRAL EAST TENNESSEE

CITY           SKY/WX    TMP DP  RH WIND       PRES   REMARKS
KNOXVILLE      PTCLDY    43  37  79 N6        29.98R
OAK RIDGE      CLEAR     43  38  82 E3        30.00R
GATLINBURG     SUNNY     36  36 100 CALM      29.99R
MORRISTOWN     SUNNY     43  36  75 CALM      30.00R
$$

TNZ083-085-099-281200-
SOUTHEAST TENNESSEE

CITY           SKY/WX    TMP DP  RH WIND       PRES   REMARKS
CHATTANOOGA    PTCLDY    49  40  71 N6        29.95R
$$

SKY/WX REPORTED AS FAIR MEANS FEW OR NO CLOUDS BELOW
12 THOUSAND FEET.




USA.gov is the U.S. government's official web portal to all federal, state and local government web resources and services.